星链-30522 (STARLINK-30522 )

导读

STARLINK-30522是美国太空探索技术公司(SpaceX)星链计划的低轨互联网卫星,于2023年10月5日发射入轨。星链计划旨在构建近地轨道卫星星座,为全球提供高速卫星互联网服务,尤其填补偏远地区网络覆盖空白。该卫星质量约数百千克,运行在数百公里高度的近地轨道,是星链星座不断扩容中的一员,助力实现全球无缝网络覆盖的目标,同时也服务于SpaceX未来深空探测网络布局。

Basic Information
目录编号:
58008
目录名称:
STARLINK-30522
国际标识:
2023-153T
轨道中心:
EARTH
卫星名称:
星链-30522
卫星全名:
星链-30522 (STARLINK-30522 )
卫星状态:
在轨 (已飞行1066 天)
发射日期:
2023-10-05 UTC
国别 :
美国 (US)
星等 :
--
Orbit Information
数据来源 国际轨道数据
星历时间: 2026-09-05T10:46:04+0800
7小时前
查看轨道信息
半长轴: 6861.36km
偏心率: 0.0001927
轨道倾角: 43.003°
近地点辐角 337.096°
升交点赤经 134.053°
平近点角 22.981°
近地点: 481.9km
远地点: 484.546km
周期: 94.270分钟
每日圈数: 15.275221
Detailed Information
固有亮度:
5
最大亮度:
0.3
卫星平台:
Starlink v2.0 mini
覆盖范围:
全球
运营商:
太空探索技术公司
运营商所在国:
美国
制造商(研发单位):
太空探索技术公司
制造商所在国:
美国
使用方式:
暂无
Satellite Introduction
星链(Starlink)计划是由太空探索技术公司(SpaceX)提出的一个巨型低轨卫星互联网星座项目,计划在2019年至2024年间在太空搭建由约1.2万颗卫星组成的“星链”网络,其中1584颗将部署在地球上空550千米处的近地轨道,并从2020年开始工作。该卫星仍在工作。
2D Orbit Map
3D Orbit Map
Orbit Altitude Analysis Chart
Orbit Inclination Analysis Chart
Orbit Comprehensive Analysis Chart
View Comprehensive Chart
Conjunction Data List
Event ID Objects TCA Miss Dist (km) Collision Risk Probability Collision Risk Index (CRI) Action
CDM_260906-165505-779805-800821
2026-09-06T
16:55:12+0000
0.637 km
远距离
1.040936E-4 高风险 0.75
CDM_260907-173905-800806-250521
2026-09-07T
17:39:19+0000
2.124 km
极远距离
1.904309E-6 低风险 0.41
CDM_260830-173003-825705-800824
2026-08-30T
17:30:23+0000
2.449 km
极远距离
1.752808E-6 低风险 0.4